User: anonymous   Login
Location: Taaricht
(32.5378°N, 5.4251°W)
Time: 22:55:38
(UTC+00:00)
Language:

USA 186 - Orbit

View from above orbital plane
View from above orbital plane
View from above satellite
View from above satellite

Ground track
Ground track

The orbit data is extracted from the following two-line orbital elements,

1 28888U 05042A   20187.10105052 0.00008500  00000-0  38578-4 0    08
2 28888  96.8842 224.3237 0128616 201.7583 158.2415 15.72321323    01
Epoch (UTC): 05 July 2020 02:25:30
Eccentricity: 0.0128616
inclination: 96.8842°
perigee height: 266 km
apogee height: 439 km
right ascension of ascending node: 224.3237°
argument of perigee: 201.7583°
revolutions per day: 15.72321323
mean anomaly at epoch: 158.2415°
orbit number at epoch: 0

The dashed part of the orbit path shows where the satellite is in the earth's shadow,  

DLR